{"data":{"norad_id":67057,"intl_designator":"2025-294AD","name":"STARLINK-36141","alt_names":[],"object_type":"PAYLOAD","status":"ACTIVE","operator":null,"country":"US","launch_date":"2025-12-11","launch_site_code":"AFETR","launch_vehicle":null,"mission":null,"orbit_class":"UNKNOWN","rcs_meters":null,"size_class":null,"mass_kg":null,"dimensions":null,"purposes":["comms"],"wikipedia_slug":null,"has_3d_model":false,"image_url":null,"decayed_at":null,"tle_current":{"epoch":"2026-05-24T21:07:16.087584Z","epoch_age_seconds":85417,"freshness":"FRESH","line1":"1 67057U 25294AD  26144.88004731  .00005867  00000+0  22258-3 0  9992","line2":"2 67057  42.9996 327.6089 0001174 274.9168  85.1549 15.27578496 26454","mean_motion":15.27578496,"eccentricity":0.0001174,"inclination_deg":42.9996,"raan_deg":327.6089,"arg_perigee_deg":274.9168,"mean_anomaly_deg":85.1549,"bstar":0.00022258,"rev_number":2645,"period_min":94.266841525373,"perigee_km":482.24809578402,"apogee_km":483.8591033368,"semimajor_km":6861.1905995604,"source":"CELESTRAK","updated_at":"2026-05-25T13:38:21.442360Z"}}}